EWG5PZ EDDH-LEPA

Flight info

Callsign EWG5PZ
Flight time 2h 17m
Altitude 38000
Route HABFU1G/33 HABFU Y348 DOMEG DCT LIRSU DCT LIMGO/N0440F390 N852 SUTAL DCT GTQ DCT POGOL DCT LASAT DCT MOROK DCT GILIR DCT GEVEA DCT INCUS DCT BALSI DCT RETNO DCT TUPOX DCT MTG DCT DIVKO DCT VATIR N852 PIVUS DCT BODEQ N852 VERSO DCT LUNIK
Aircraft A20N/M-SDE2E3FGHIRWXY/LB1

Departure

Time 2026-04-23 19:23
Airport Hamburg Helmut Schmidt Airport (EDDH)

Arrival

Time 2026-04-23 21:41
Airport Palma de Mallorca Airport (LEPA)
Time Latitude Longitude Altitude Speed Heading
2026-04-23 18:47 53.62942 10.00288 47 ft 0 kts 123°
2026-04-23 19:08 53.62945 10.00280 48 ft 4 kts 123°
2026-04-23 19:08 53.62960 10.00242 48 ft 4 kts 123°
2026-04-23 19:08 53.62974 10.00205 46 ft 2 kts 123°
2026-04-23 19:09 53.62989 10.00179 46 ft 4 kts 172°
2026-04-23 19:09 53.63012 10.00185 48 ft 0 kts 206°
2026-04-23 19:12 53.62995 10.00174 47 ft 6 kts 200°
2026-04-23 19:12 53.62946 10.00132 48 ft 9 kts 211°
2026-04-23 19:13 53.62887 10.00066 48 ft 9 kts 214°
2026-04-23 19:13 53.62870 10.00040 48 ft 0 kts 232°
2026-04-23 19:16 53.62869 10.00037 48 ft 1 kts 234°
2026-04-23 19:17 53.62849 9.99973 47 ft 2 kts 243°
2026-04-23 19:17 53.62841 9.99946 46 ft 0 kts 242°
2026-04-23 19:20 53.62832 9.99918 47 ft 7 kts 242°
2026-04-23 19:21 53.62812 9.99810 45 ft 11 kts 290°
2026-04-23 19:21 53.62844 9.99765 45 ft 0 kts 332°
2026-04-23 19:22 53.63286 9.99383 46 ft 94 kts 331°
2026-04-23 19:23 53.64016 9.98748 51 ft 140 kts 333°
2026-04-23 19:23 53.64963 9.97977 302 ft 158 kts 330°
2026-04-23 19:23 53.65965 9.97133 888 ft 157 kts 329°
2026-04-23 19:24 53.67742 9.95570 2286 ft 151 kts 333°
2026-04-23 19:24 53.68726 9.94709 2629 ft 171 kts 333°
2026-04-23 19:24 53.70884 9.92372 3807 ft 196 kts 309°
2026-04-23 19:25 53.71181 9.87715 5464 ft 223 kts 258°
2026-04-23 19:25 53.70083 9.82305 6417 ft 265 kts 257°
2026-04-23 19:26 53.68855 9.76231 8023 ft 277 kts 257°
2026-04-23 19:26 53.68235 9.73124 8896 ft 282 kts 257°
2026-04-23 19:27 53.66983 9.66764 9648 ft 287 kts 257°
2026-04-23 19:27 53.64443 9.57519 10587 ft 309 kts 226°
2026-04-23 19:28 53.60463 9.53420 11228 ft 357 kts 211°
2026-04-23 19:28 53.56042 9.49476 12702 ft 366 kts 210°
2026-04-23 19:29 53.53778 9.47438 13472 ft 370 kts 210°
2026-04-23 19:29 53.49193 9.43268 14924 ft 377 kts 210°
2026-04-23 19:30 53.44547 9.39034 16348 ft 382 kts 210°
2026-04-23 19:30 53.42196 9.36896 17026 ft 386 kts 210°
2026-04-23 19:30 53.37434 9.32573 18376 ft 392 kts 210°
2026-04-23 19:31 53.35059 9.30422 19007 ft 394 kts 209°
2026-04-23 19:31 53.32544 9.28525 19540 ft 400 kts 201°
2026-04-23 19:31 53.29855 9.27204 20082 ft 404 kts 193°
2026-04-23 19:31 53.27072 9.26369 20662 ft 408 kts 191°
2026-04-23 19:32 53.24266 9.25553 21244 ft 410 kts 191°
2026-04-23 19:32 53.21434 9.24719 21755 ft 414 kts 191°
2026-04-23 19:32 53.18586 9.23875 22307 ft 418 kts 191°
2026-04-23 19:32 53.15713 9.23021 22870 ft 420 kts 191°
2026-04-23 19:33 53.12830 9.22165 23416 ft 423 kts 191°
2026-04-23 19:33 53.09921 9.21303 23944 ft 426 kts 191°
2026-04-23 19:33 53.04069 9.19573 24809 ft 432 kts 191°
2026-04-23 19:34 53.01104 9.18697 25261 ft 434 kts 191°
2026-04-23 19:34 52.98125 9.17803 25756 ft 435 kts 192°
2026-04-23 19:34 52.92362 9.14581 26447 ft 441 kts 207°
2026-04-23 19:35 52.89656 9.12198 26927 ft 440 kts 209°
2026-04-23 19:35 52.86957 9.09794 27447 ft 440 kts 208°
2026-04-23 19:35 52.84247 9.07401 27787 ft 444 kts 208°
2026-04-23 19:35 52.81493 9.04984 28082 ft 448 kts 208°
2026-04-23 19:36 52.78741 9.02578 28594 ft 447 kts 208°
2026-04-23 19:36 52.75980 9.00169 28911 ft 450 kts 208°
2026-04-23 19:36 52.73198 8.97745 29195 ft 453 kts 208°
2026-04-23 19:36 52.70409 8.95319 29629 ft 453 kts 208°
2026-04-23 19:37 52.67611 8.92888 29960 ft 455 kts 208°
2026-04-23 19:37 52.64794 8.90442 30191 ft 459 kts 207°
2026-04-23 19:37 52.61956 8.87981 30564 ft 460 kts 207°
2026-04-23 19:37 52.59117 8.85524 30849 ft 461 kts 207°
2026-04-23 19:38 52.56293 8.83084 31033 ft 466 kts 207°
2026-04-23 19:38 52.53425 8.80612 31387 ft 465 kts 207°
2026-04-23 19:38 52.50560 8.78143 31748 ft 465 kts 207°
2026-04-23 19:38 52.47688 8.75672 32062 ft 466 kts 207°
2026-04-23 19:39 52.44814 8.73204 32432 ft 465 kts 207°
2026-04-23 19:39 52.41962 8.70757 32894 ft 462 kts 207°
2026-04-23 19:39 52.39109 8.68313 33172 ft 463 kts 207°
2026-04-23 19:39 52.36255 8.65875 33535 ft 461 kts 207°
2026-04-23 19:40 52.33414 8.63450 33908 ft 460 kts 207°
2026-04-23 19:40 52.30590 8.60986 34159 ft 461 kts 210°
2026-04-23 19:40 52.27947 8.58141 34443 ft 461 kts 217°
2026-04-23 19:40 52.25490 8.54803 34787 ft 459 kts 223°
2026-04-23 19:41 52.23271 8.51066 35019 ft 459 kts 228°
2026-04-23 19:41 52.21135 8.47184 35258 ft 459 kts 227°
2026-04-23 19:41 52.19002 8.43326 35499 ft 458 kts 227°
2026-04-23 19:41 52.16860 8.39475 35689 ft 459 kts 227°
2026-04-23 19:42 52.14723 8.35647 36066 ft 454 kts 226°
2026-04-23 19:42 52.12599 8.31856 36373 ft 452 kts 226°
2026-04-23 19:42 52.10471 8.28066 36523 ft 453 kts 226°
2026-04-23 19:42 52.08370 8.24332 36772 ft 451 kts 227°
2026-04-23 19:43 52.06250 8.20571 36985 ft 451 kts 226°
2026-04-23 19:43 52.04129 8.16810 37128 ft 452 kts 226°
2026-04-23 19:43 52.02009 8.13058 37350 ft 450 kts 227°
2026-04-23 19:43 51.99892 8.09313 37542 ft 450 kts 226°
2026-04-23 19:44 51.97774 8.05573 37683 ft 450 kts 226°
2026-04-23 19:44 51.95653 8.01835 37863 ft 450 kts 226°
2026-04-23 19:44 51.93530 7.98097 38013 ft 450 kts 226°
2026-04-23 19:44 51.91411 7.94374 38168 ft 450 kts 226°
2026-04-23 19:45 51.89283 7.90642 38312 ft 449 kts 226°
2026-04-23 19:45 51.85043 7.83220 38309 ft 448 kts 226°
2026-04-23 19:46 51.80813 7.75840 38320 ft 446 kts 226°
2026-04-23 19:46 51.76584 7.68481 38324 ft 448 kts 226°
2026-04-23 19:47 51.73028 7.62421 38318 ft 447 kts 221°
2026-04-23 19:47 51.67130 7.55724 38311 ft 443 kts 205°
2026-04-23 19:48 51.61592 7.51503 38308 ft 443 kts 204°
2026-04-23 19:48 51.56024 7.47231 38323 ft 443 kts 204°
2026-04-23 19:49 51.50443 7.42956 38336 ft 444 kts 204°
2026-04-23 19:49 51.44861 7.38694 38335 ft 444 kts 204°
2026-04-23 19:50 51.39281 7.34445 38334 ft 444 kts 204°
2026-04-23 19:50 51.33718 7.30221 38325 ft 444 kts 204°
2026-04-23 19:51 51.28130 7.25989 38329 ft 444 kts 203°
2026-04-23 19:51 51.22527 7.21758 38332 ft 445 kts 203°
2026-04-23 19:52 51.17871 7.18250 38333 ft 445 kts 203°
2026-04-23 19:52 51.11363 7.13361 38333 ft 445 kts 203°
2026-04-23 19:53 51.05767 7.09166 38319 ft 442 kts 203°
2026-04-23 19:53 51.00202 7.05009 38321 ft 442 kts 203°
2026-04-23 19:54 50.94645 7.00870 38320 ft 442 kts 203°
2026-04-23 19:54 50.89070 6.96727 38324 ft 442 kts 203°
2026-04-23 19:55 50.83491 6.92592 38324 ft 442 kts 203°
2026-04-23 19:55 50.77912 6.88468 38345 ft 442 kts 203°
2026-04-23 19:56 50.72336 6.84356 38345 ft 442 kts 202°
2026-04-23 19:56 50.66740 6.80243 38346 ft 446 kts 202°
2026-04-23 19:57 50.61116 6.76119 38496 ft 446 kts 202°
2026-04-23 19:57 50.58324 6.74074 38760 ft 441 kts 202°
2026-04-23 19:57 50.56482 6.72727 38967 ft 438 kts 202°
2026-04-23 19:57 50.52798 6.70037 39252 ft 434 kts 202°
2026-04-23 19:58 50.50049 6.68039 39316 ft 435 kts 201°
2026-04-23 19:58 50.44295 6.65144 39335 ft 436 kts 194°
2026-04-23 19:59 50.38427 6.62423 39328 ft 441 kts 194°
2026-04-23 19:59 50.32536 6.59687 39327 ft 446 kts 194°
2026-04-23 20:00 50.26549 6.56907 39318 ft 451 kts 194°
2026-04-23 20:00 50.20494 6.54197 39310 ft 453 kts 188°
2026-04-23 20:01 50.15310 6.53068 39314 ft 452 kts 185°
2026-04-23 20:01 50.08049 6.51591 39309 ft 452 kts 185°
2026-04-23 20:02 50.02818 6.50523 39306 ft 452 kts 185°
2026-04-23 20:02 49.96569 6.49247 39303 ft 453 kts 185°
2026-04-23 20:03 49.90354 6.47980 39304 ft 453 kts 185°
2026-04-23 20:03 49.84104 6.46710 39309 ft 453 kts 185°
2026-04-23 20:04 49.77847 6.45774 39315 ft 450 kts 175°
2026-04-23 20:04 49.71702 6.47488 39313 ft 449 kts 166°
2026-04-23 20:05 49.65602 6.49557 39313 ft 449 kts 166°
2026-04-23 20:05 49.59502 6.51601 39309 ft 449 kts 166°
2026-04-23 20:06 49.53388 6.53636 39310 ft 450 kts 166°
2026-04-23 20:06 49.47256 6.55672 39305 ft 450 kts 166°
2026-04-23 20:07 49.41176 6.57684 39302 ft 450 kts 166°
2026-04-23 20:07 49.35047 6.59707 39300 ft 450 kts 166°
2026-04-23 20:08 49.28927 6.61723 39313 ft 450 kts 166°
2026-04-23 20:08 49.22803 6.63735 39298 ft 450 kts 166°
2026-04-23 20:09 49.16670 6.65744 39302 ft 451 kts 166°
2026-04-23 20:09 49.10519 6.67755 39294 ft 452 kts 166°
2026-04-23 20:10 49.04359 6.69764 39293 ft 453 kts 166°
2026-04-23 20:10 48.98181 6.71329 39291 ft 454 kts 173°
2026-04-23 20:11 48.91847 6.71409 39301 ft 456 kts 180°
2026-04-23 20:11 48.85477 6.71116 39288 ft 456 kts 179°
2026-04-23 20:12 48.79123 6.70857 39294 ft 456 kts 179°
2026-04-23 20:12 48.72769 6.70610 39290 ft 456 kts 179°
2026-04-23 20:13 48.66458 6.70365 39286 ft 456 kts 179°
2026-04-23 20:13 48.60102 6.70118 39280 ft 456 kts 179°
2026-04-23 20:14 48.53735 6.69871 39279 ft 456 kts 179°
2026-04-23 20:14 48.47420 6.69627 39277 ft 456 kts 179°
2026-04-23 20:15 48.41063 6.69382 39279 ft 457 kts 179°
2026-04-23 20:15 48.34702 6.69136 39279 ft 457 kts 179°
2026-04-23 20:16 48.28338 6.68892 39273 ft 457 kts 179°
2026-04-23 20:16 48.21972 6.68647 39285 ft 458 kts 179°
2026-04-23 20:17 48.15608 6.68402 39282 ft 458 kts 179°
2026-04-23 20:17 48.09242 6.68160 39280 ft 458 kts 179°
2026-04-23 20:18 48.02898 6.67919 39279 ft 458 kts 179°
2026-04-23 20:18 47.96518 6.67677 39273 ft 458 kts 179°
2026-04-23 20:19 47.90180 6.67438 39272 ft 458 kts 179°
2026-04-23 20:19 47.83808 6.67197 39268 ft 458 kts 179°
2026-04-23 20:20 47.77437 6.66957 39262 ft 459 kts 179°
2026-04-23 20:20 47.71055 6.66718 39263 ft 458 kts 179°
2026-04-23 20:21 47.64664 6.66478 39260 ft 458 kts 179°
2026-04-23 20:21 47.58280 6.66240 39258 ft 459 kts 179°
2026-04-23 20:22 47.51930 6.66003 39254 ft 459 kts 179°
2026-04-23 20:22 47.45550 6.65742 39253 ft 459 kts 182°
2026-04-23 20:23 47.39312 6.63541 39261 ft 466 kts 202°
2026-04-23 20:23 47.33866 6.58328 39256 ft 470 kts 219°
2026-04-23 20:24 47.28900 6.52043 39254 ft 470 kts 218°
2026-04-23 20:24 47.23916 6.45792 39255 ft 470 kts 218°
2026-04-23 20:25 47.18960 6.39606 39248 ft 468 kts 218°
2026-04-23 20:25 47.14008 6.33441 39249 ft 467 kts 218°
2026-04-23 20:26 47.08918 6.27517 39250 ft 465 kts 209°
2026-04-23 20:26 47.03019 6.23815 39242 ft 459 kts 191°
2026-04-23 20:27 46.96747 6.22618 39240 ft 457 kts 182°
2026-04-23 20:27 46.90407 6.21787 39248 ft 456 kts 183°
2026-04-23 20:28 46.84072 6.20943 39243 ft 457 kts 183°
2026-04-23 20:28 46.77736 6.20101 39238 ft 456 kts 183°
2026-04-23 20:29 46.71450 6.19269 39240 ft 456 kts 183°
2026-04-23 20:29 46.65117 6.18433 39244 ft 456 kts 183°
2026-04-23 20:30 46.58784 6.17597 39232 ft 456 kts 183°
2026-04-23 20:30 46.49343 6.16355 39232 ft 456 kts 183°
2026-04-23 20:31 46.43012 6.15524 39230 ft 456 kts 183°
2026-04-23 20:31 46.36687 6.14700 39214 ft 457 kts 184°
2026-04-23 20:32 46.30351 6.13874 39210 ft 457 kts 184°
2026-04-23 20:32 46.24017 6.12944 39214 ft 457 kts 187°
2026-04-23 20:33 46.17720 6.11529 39211 ft 458 kts 187°
2026-04-23 20:33 46.11454 6.10126 39211 ft 458 kts 187°
2026-04-23 20:34 46.05149 6.08726 39211 ft 458 kts 187°
2026-04-23 20:34 45.98829 6.07328 39212 ft 459 kts 187°
2026-04-23 20:35 45.92494 6.05929 39211 ft 460 kts 187°
2026-04-23 20:35 45.86166 6.04535 39211 ft 460 kts 187°
2026-04-23 20:36 45.79836 6.03138 39211 ft 460 kts 187°
2026-04-23 20:36 45.73517 6.01741 39208 ft 462 kts 187°
2026-04-23 20:37 45.67160 6.00340 39211 ft 462 kts 187°
2026-04-23 20:37 45.60805 5.98944 39213 ft 462 kts 187°
2026-04-23 20:38 45.54429 5.97547 39210 ft 464 kts 187°
2026-04-23 20:38 45.48050 5.96143 39207 ft 464 kts 189°
2026-04-23 20:39 45.41729 5.94219 39208 ft 465 kts 192°
2026-04-23 20:39 45.35439 5.92244 39206 ft 466 kts 192°
2026-04-23 20:40 45.29097 5.90263 39203 ft 466 kts 192°
2026-04-23 20:40 45.22765 5.88294 39208 ft 467 kts 192°
2026-04-23 20:41 45.16410 5.86324 39208 ft 466 kts 192°
2026-04-23 20:41 45.10062 5.84358 39209 ft 468 kts 192°
2026-04-23 20:42 45.03695 5.82393 39208 ft 467 kts 192°
2026-04-23 20:42 44.97319 5.80430 39213 ft 469 kts 192°
2026-04-23 20:43 44.90949 5.78472 39214 ft 468 kts 192°
2026-04-23 20:43 44.84570 5.76515 39210 ft 469 kts 192°
2026-04-23 20:44 44.78186 5.74563 39212 ft 470 kts 192°
2026-04-23 20:44 44.71840 5.72625 39211 ft 469 kts 192°
2026-04-23 20:45 44.65447 5.70679 39206 ft 470 kts 193°
2026-04-23 20:45 44.60078 5.69048 39208 ft 472 kts 193°
2026-04-23 20:46 44.53706 5.67115 39205 ft 471 kts 193°
2026-04-23 20:46 44.47291 5.65173 39203 ft 471 kts 193°
2026-04-23 20:47 44.40852 5.63230 39203 ft 474 kts 193°
2026-04-23 20:47 44.34562 5.60534 39200 ft 472 kts 203°
2026-04-23 20:48 44.28459 5.57150 39192 ft 472 kts 202°
2026-04-23 20:48 44.22325 5.53780 39195 ft 475 kts 203°
2026-04-23 20:49 44.16200 5.50434 39190 ft 474 kts 203°
2026-04-23 20:49 44.10056 5.47087 39191 ft 474 kts 203°
2026-04-23 20:50 44.03880 5.43731 39188 ft 476 kts 203°
2026-04-23 20:50 43.97709 5.40384 39190 ft 476 kts 203°
2026-04-23 20:51 43.91537 5.37043 39190 ft 476 kts 203°
2026-04-23 20:51 43.85388 5.33721 39197 ft 479 kts 203°
2026-04-23 20:52 43.79166 5.30369 39199 ft 478 kts 204°
2026-04-23 20:52 43.72959 5.27028 39205 ft 478 kts 204°
2026-04-23 20:53 43.66754 5.23699 39209 ft 478 kts 204°
2026-04-23 20:53 43.60549 5.20376 39211 ft 478 kts 204°
2026-04-23 20:54 43.54374 5.17076 39210 ft 478 kts 204°
2026-04-23 20:54 43.48163 5.13766 39211 ft 479 kts 205°
2026-04-23 20:55 43.41945 5.10451 39211 ft 478 kts 206°
2026-04-23 20:55 43.36096 5.06331 39211 ft 472 kts 217°
2026-04-23 20:56 43.30685 5.01230 39204 ft 471 kts 219°
2026-04-23 20:56 43.25284 4.96124 39206 ft 471 kts 219°
2026-04-23 20:57 43.19877 4.91044 39206 ft 471 kts 219°
2026-04-23 20:57 43.14468 4.85976 39205 ft 471 kts 219°
2026-04-23 20:58 43.09051 4.80913 39209 ft 471 kts 219°
2026-04-23 20:58 43.03520 4.76083 39207 ft 474 kts 213°
2026-04-23 20:59 42.97747 4.71723 39218 ft 474 kts 213°
2026-04-23 20:59 42.91971 4.67354 39206 ft 474 kts 213°
2026-04-23 21:00 42.86233 4.63017 39211 ft 474 kts 213°
2026-04-23 21:00 42.80463 4.58663 39208 ft 474 kts 213°
2026-04-23 21:01 42.74707 4.54328 39207 ft 472 kts 213°
2026-04-23 21:01 42.68957 4.50008 39205 ft 472 kts 213°
2026-04-23 21:02 42.63198 4.45692 39205 ft 472 kts 213°
2026-04-23 21:02 42.57444 4.41389 39205 ft 472 kts 213°
2026-04-23 21:03 42.51688 4.37093 39200 ft 472 kts 213°
2026-04-23 21:03 42.45961 4.32828 39206 ft 472 kts 213°
2026-04-23 21:04 42.40196 4.28544 39202 ft 472 kts 213°
2026-04-23 21:04 42.34428 4.24267 39201 ft 472 kts 213°
2026-04-23 21:05 42.28653 4.19994 39200 ft 473 kts 213°
2026-04-23 21:05 42.22905 4.15750 39200 ft 469 kts 212°
2026-04-23 21:06 42.17211 4.11552 39198 ft 470 kts 212°
2026-04-23 21:06 42.11473 4.07335 39193 ft 470 kts 212°
2026-04-23 21:07 42.05729 4.03125 39195 ft 470 kts 212°
2026-04-23 21:07 41.99979 3.98919 39195 ft 470 kts 212°
2026-04-23 21:08 41.94126 3.94949 39192 ft 473 kts 206°
2026-04-23 21:08 41.87819 3.92307 39192 ft 477 kts 195°
2026-04-23 21:09 41.81292 3.90788 39195 ft 479 kts 193°
2026-04-23 21:09 41.74721 3.89286 39192 ft 479 kts 193°
2026-04-23 21:10 41.68151 3.87772 39193 ft 478 kts 193°
2026-04-23 21:10 41.61593 3.86262 39192 ft 478 kts 193°
2026-04-23 21:11 41.55032 3.84755 39190 ft 478 kts 193°
2026-04-23 21:11 41.48466 3.83251 39179 ft 478 kts 193°
2026-04-23 21:12 41.41924 3.81755 39189 ft 477 kts 193°
2026-04-23 21:12 41.35415 3.80269 39181 ft 476 kts 193°
2026-04-23 21:13 41.28888 3.78782 39183 ft 475 kts 193°
2026-04-23 21:13 41.22366 3.77299 39181 ft 474 kts 193°
2026-04-23 21:14 41.15915 3.75687 39120 ft 462 kts 198°
2026-04-23 21:14 41.12911 3.74495 38897 ft 451 kts 203°
2026-04-23 21:14 41.10003 3.73013 38617 ft 445 kts 205°
2026-04-23 21:15 41.07108 3.71494 38324 ft 451 kts 205°
2026-04-23 21:15 41.04177 3.69966 38047 ft 454 kts 205°
2026-04-23 21:15 41.01231 3.68442 37767 ft 454 kts 205°
2026-04-23 21:15 40.98289 3.66928 37496 ft 454 kts 205°
2026-04-23 21:16 40.95338 3.65412 37229 ft 455 kts 205°
2026-04-23 21:16 40.92386 3.63897 36965 ft 456 kts 205°
2026-04-23 21:16 40.89425 3.62379 36702 ft 457 kts 205°
2026-04-23 21:16 40.86452 3.60856 36443 ft 458 kts 205°
2026-04-23 21:17 40.83481 3.59335 36177 ft 458 kts 205°
2026-04-23 21:17 40.80501 3.57812 35925 ft 459 kts 205°
2026-04-23 21:17 40.77520 3.56289 35675 ft 460 kts 205°
2026-04-23 21:17 40.74571 3.54784 35208 ft 462 kts 205°
2026-04-23 21:18 40.71559 3.53247 34455 ft 467 kts 205°
2026-04-23 21:18 40.68505 3.51690 33422 ft 474 kts 205°
2026-04-23 21:18 40.65428 3.50127 32682 ft 473 kts 205°
2026-04-23 21:18 40.62368 3.48576 31880 ft 473 kts 205°
2026-04-23 21:19 40.59290 3.47014 31055 ft 474 kts 205°
2026-04-23 21:19 40.56202 3.45446 30200 ft 477 kts 205°
2026-04-23 21:19 40.53104 3.43877 29519 ft 472 kts 205°
2026-04-23 21:19 40.50062 3.42340 29038 ft 463 kts 205°
2026-04-23 21:20 40.47059 3.40870 28438 ft 460 kts 201°
2026-04-23 21:20 40.43963 3.39868 27902 ft 458 kts 192°
2026-04-23 21:20 40.40791 3.39461 27270 ft 457 kts 183°
2026-04-23 21:20 40.37628 3.39591 26726 ft 453 kts 180°
2026-04-23 21:21 40.34525 3.39781 26189 ft 449 kts 180°
2026-04-23 21:21 40.31410 3.39965 25642 ft 445 kts 180°
2026-04-23 21:21 40.28319 3.40142 25069 ft 442 kts 180°
2026-04-23 21:21 40.25259 3.40316 24494 ft 439 kts 180°
2026-04-23 21:22 40.22208 3.40488 23915 ft 437 kts 180°
2026-04-23 21:22 40.19181 3.40659 23346 ft 433 kts 180°
2026-04-23 21:22 40.16192 3.40828 22822 ft 427 kts 180°
2026-04-23 21:22 40.13265 3.40994 22279 ft 423 kts 180°
2026-04-23 21:23 40.10338 3.41160 21738 ft 418 kts 180°
2026-04-23 21:23 40.07444 3.41323 21201 ft 414 kts 180°
2026-04-23 21:23 40.04575 3.41485 20657 ft 410 kts 180°
2026-04-23 21:23 40.01735 3.41645 20122 ft 407 kts 180°
2026-04-23 21:24 39.98920 3.41805 19594 ft 404 kts 180°
2026-04-23 21:24 39.96117 3.41962 19061 ft 401 kts 180°
2026-04-23 21:24 39.93342 3.42117 18522 ft 398 kts 180°
2026-04-23 21:24 39.90578 3.42271 17959 ft 395 kts 180°
2026-04-23 21:25 39.87845 3.42424 17435 ft 391 kts 180°
2026-04-23 21:25 39.85141 3.42576 16919 ft 387 kts 180°
2026-04-23 21:25 39.82456 3.42726 16401 ft 384 kts 180°
2026-04-23 21:25 39.79834 3.42873 15890 ft 381 kts 180°
2026-04-23 21:26 39.77191 3.43021 15381 ft 378 kts 180°
2026-04-23 21:26 39.74565 3.43168 14845 ft 376 kts 180°
2026-04-23 21:26 39.71981 3.42906 14308 ft 369 kts 198°
2026-04-23 21:26 39.69669 3.41578 13730 ft 360 kts 219°
2026-04-23 21:27 39.67937 3.39346 13261 ft 345 kts 240°
2026-04-23 21:27 39.66837 3.36665 12797 ft 337 kts 249°
2026-04-23 21:27 39.65888 3.33910 12322 ft 333 kts 250°
2026-04-23 21:27 39.64953 3.31198 12073 ft 323 kts 249°
2026-04-23 21:28 39.64017 3.28606 11940 ft 311 kts 248°
2026-04-23 21:28 39.63090 3.26125 11778 ft 300 kts 248°
2026-04-23 21:28 39.62167 3.23707 11495 ft 294 kts 248°
2026-04-23 21:28 39.61260 3.21352 11247 ft 292 kts 247°
2026-04-23 21:29 39.60346 3.18982 10977 ft 294 kts 247°
2026-04-23 21:29 39.59427 3.16605 10591 ft 295 kts 247°
2026-04-23 21:29 39.58522 3.14268 10233 ft 293 kts 247°
2026-04-23 21:29 39.57608 3.11913 9835 ft 292 kts 247°
2026-04-23 21:30 39.56702 3.09579 9463 ft 288 kts 246°
2026-04-23 21:30 39.55806 3.07274 9113 ft 284 kts 246°
2026-04-23 21:30 39.54921 3.04997 8746 ft 281 kts 246°
2026-04-23 21:30 39.54045 3.02739 8337 ft 281 kts 245°
2026-04-23 21:31 39.53162 3.00469 7930 ft 281 kts 245°
2026-04-23 21:31 39.52284 2.98215 7574 ft 279 kts 245°
2026-04-23 21:31 39.51412 2.95979 7224 ft 277 kts 245°
2026-04-23 21:31 39.50835 2.94501 7001 ft 276 kts 245°
2026-04-23 21:32 39.49970 2.92286 6661 ft 275 kts 244°
2026-04-23 21:32 39.49107 2.90080 6305 ft 277 kts 244°
2026-04-23 21:32 39.48214 2.87788 5952 ft 288 kts 244°
2026-04-23 21:32 39.47321 2.85476 5612 ft 286 kts 244°
2026-04-23 21:33 39.46439 2.83180 5258 ft 283 kts 244°
2026-04-23 21:33 39.45573 2.80908 4910 ft 281 kts 244°
2026-04-23 21:33 39.44718 2.78632 4566 ft 281 kts 244°
2026-04-23 21:33 39.43878 2.76353 4211 ft 280 kts 244°
2026-04-23 21:34 39.43053 2.74085 3854 ft 278 kts 244°
2026-04-23 21:34 39.42249 2.71849 3517 ft 277 kts 242°
2026-04-23 21:34 39.41406 2.69609 3118 ft 277 kts 242°
2026-04-23 21:34 39.40568 2.67360 2745 ft 276 kts 242°
2026-04-23 21:35 39.39727 2.65132 2451 ft 272 kts 242°
2026-04-23 21:35 39.38920 2.62981 2352 ft 260 kts 242°
2026-04-23 21:35 39.38162 2.60903 2288 ft 252 kts 250°
2026-04-23 21:35 39.38010 2.58729 2290 ft 238 kts 282°
2026-04-23 21:36 39.40074 2.55770 2299 ft 226 kts 349°
2026-04-23 21:36 39.41607 2.55470 2297 ft 222 kts
2026-04-23 21:36 39.43118 2.55666 2292 ft 213 kts 21°
2026-04-23 21:37 39.44562 2.56025 2303 ft 218 kts
2026-04-23 21:37 39.46081 2.56197 2301 ft 219 kts 14°
2026-04-23 21:37 39.47505 2.56763 2298 ft 211 kts 37°
2026-04-23 21:37 39.48546 2.58016 2292 ft 197 kts 57°
2026-04-23 21:38 39.49282 2.59467 2088 ft 191 kts 63°
2026-04-23 21:38 39.49945 2.60938 1862 ft 184 kts 62°
2026-04-23 21:38 39.50589 2.62315 1589 ft 172 kts 61°
2026-04-23 21:38 39.51179 2.63571 1358 ft 155 kts 61°
2026-04-23 21:39 39.51715 2.64705 1151 ft 140 kts 62°
2026-04-23 21:39 39.52206 2.65738 948 ft 131 kts 61°
2026-04-23 21:39 39.52706 2.66759 866 ft 134 kts 60°
2026-04-23 21:39 39.53174 2.67794 694 ft 141 kts 60°
2026-04-23 21:40 39.53689 2.68863 532 ft 142 kts 58°
2026-04-23 21:40 39.54204 2.69940 352 ft 138 kts 60°
2026-04-23 21:40 39.54683 2.70984 122 ft 131 kts 60°
2026-04-23 21:40 39.55134 2.71952 44 ft 118 kts 60°
2026-04-23 21:41 39.55492 2.72719 36 ft 82 kts 58°
2026-04-23 21:41 39.55709 2.73205 38 ft 37 kts 82°
2026-04-23 21:41 39.55717 2.73340 38 ft 6 kts 87°
2026-04-23 21:41 39.55720 2.73416 38 ft 10 kts 87°
2026-04-23 21:42 39.55716 2.73520 38 ft 12 kts 115°
2026-04-23 21:42 39.55652 2.73500 38 ft 12 kts 242°
2026-04-23 21:42 39.55603 2.73396 38 ft 15 kts 237°
2026-04-23 21:42 39.55542 2.73268 38 ft 18 kts 238°
2026-04-23 21:43 39.55471 2.73117 37 ft 18 kts 239°
2026-04-23 21:43 39.55428 2.73023 37 ft 9 kts 237°
2026-04-23 21:43 39.55367 2.72983 38 ft 11 kts 172°
2026-04-23 21:43 39.55300 2.73031 38 ft 9 kts 153°
2026-04-23 21:44 39.55237 2.73012 36 ft 11 kts 234°
2026-04-23 21:44 39.55189 2.72910 36 ft 15 kts 239°
2026-04-23 21:44 39.55137 2.72835 38 ft 0 kts 190°
2026-04-23 21:44 39.55119 2.72835 38 ft 5 kts 181°
2026-04-23 21:45 39.55084 2.72833 38 ft 2 kts 182°
2026-04-23 21:45 39.55079 2.72833 38 ft 0 kts 181°